Home   Weather   Township of Paris   Past weeks
Flag for USA

Past Weather in Township of Paris, Kansas, USA — Yesterday and Last 2 Weeks

Now
83 °F

Scattered clouds.


Feels Like: 86 °F
Forecast: 87 / 66 °F
Wind: 5 mph from Southwest

Location: Lee's Summit Municipal Airport

Current Time: Jul 16, 2019 at 1:33:19 pm

Latest Report: Jul 16, 2019 at 12:53 pm


Visibility: 10 mi

Pressure: 29.90 "Hg

Humidity: 63%

Dew Point: 69 °F

Location of Township of ParisLocation

Past Weather in Township of Paris — Graph

°F

Township of Paris Temperature Yesterday

Maximum temperature yesterday: 82 °F (at 3:53 pm)
Minimum temperature yesterday: 68 °F (at 5:53 am)
Average temperature yesterday: 76 °F

High & Low Weather Summary for the Past Weeks

 TemperatureHumidityPressure
High92 °F (Jul 9, 4:53 pm)97% (Jul 6, 6:00 am)30.16 "Hg (Jul 6, 6:00 am)
Low67 °F (Jul 11, 5:53 am)48% (Jul 13, 6:53 pm)29.82 "Hg (Jul 3, 5:53 pm)
Average78 °F73%29.97 "Hg
* Reported Jul 1 11:53 am — Jul 16 11:53 am, Township of Paris. Weather by CustomWeather, © 2019

Note: Actual official high and low records may vary slightly from our data, if they occured in-between our weather recording intervals... More about our weather records

Advertising

Township of Paris Weather History for the Previous 24 Hours

Scroll right to see more
 ConditionsComfort  
Time TempWeatherWind HumidityBarometerVisibility
11:53 am
Tue, Jul 16
82 °FPassing clouds.No wind65%29.92 "Hg10 mi
11:22 am80 °FScattered clouds.No wind67%29.96 "Hg10 mi
10:53 am80 °FPartly sunny.6 mph69%29.94 "Hg10 mi
10:21 am79 °FPartly sunny.8 mph69%29.98 "Hg10 mi
9:53 am77 °FSunny.7 mph71%29.95 "Hg10 mi
9:29 am75 °FScattered clouds.8 mph76%29.99 "Hg10 mi
8:53 am76 °FOvercast.N/A77%29.95 "Hg10 mi
7:53 am72 °FLow clouds.5 mph87%29.92 "Hg10 mi
7:37 am72 °FMore clouds than sun.5 mph87%29.95 "Hg10 mi
6:53 am71 °FPartly sunny.No wind87%29.90 "Hg10 mi
6:23 am71 °FLow clouds.3 mph90%29.92 "Hg10 mi
5:53 am71 °FOvercast.3 mph90%29.88 "Hg10 mi
5:41 am71 °FOvercast.No wind90%29.90 "Hg10 mi
5:20 am71 °FMostly cloudy.N/A90%29.90 "Hg10 mi
4:53 am70 °FLow clouds.N/A90%29.89 "Hg10 mi
4:02 am68 °FPassing clouds.3 mph93%29.90 "Hg10 mi
3:53 am68 °FPassing clouds.5 mph90%29.87 "Hg10 mi
2:53 am69 °FClear.3 mph90%29.86 "Hg10 mi
1:53 am69 °FClear.6 mph90%29.89 "Hg10 mi
12:53 am70 °FClear.3 mph90%29.89 "Hg10 mi
11:53 pm
Mon, Jul 15
72 °FPassing clouds.5 mph84%29.91 "Hg10 mi
10:53 pm73 °FPassing clouds.5 mph81%29.91 "Hg10 mi
9:53 pm74 °FClear.6 mph79%29.89 "Hg10 mi
8:53 pm76 °FPassing clouds.8 mph72%29.87 "Hg10 mi
7:53 pm78 °FPartly sunny.N/A69%29.86 "Hg10 mi
6:53 pm81 °FPartly sunny.9 mph62%29.87 "Hg10 mi
5:53 pm80 °FOvercast.8 mph64%29.89 "Hg10 mi
4:53 pm81 °FOvercast.14 mph62%29.89 "Hg10 mi
3:53 pm82 °FScattered clouds.10 mph60%29.90 "Hg10 mi
2:53 pm81 °FOvercast.12 mph62%29.93 "Hg10 mi
1:53 pm80 °FMore clouds than sun.9 mph64%29.95 "Hg10 mi
Weather by CustomWeather, © 2019

See weather overview

LIVE PARTIAL LUNAR ECLIPSE – Watch the eclipse as it happens